Location: Theodore Roosevelt National Park
(46.9990°N, 103.4631°W)
Time: 00:58:55
(UTC-06:00)

Iridium 37 - Visible Passes

Search period start: 28 August 2016 00:00
Search period end: 07 September 2016 00:00
Orbit: 776 x 779 km, 86.4° (Epoch: 27 August)

Date Brightness Start Highest point End Pass type
(mag) Time Alt. Az. Time Alt. Az. Time Alt. Az.
29 Aug 8.8 21:06:06 10° NW 21:08:04 12° WNW 21:10:01 10° W visible
30 Aug 8.4 20:31:05 10° NNW 20:34:55 21° WNW 20:38:45 10° SW visible
02 Sep 8.7 20:31:53 10° NW 20:34:49 15° WNW 20:37:44 10° WSW visible
03 Sep 8.2 19:57:22 10° NNW 20:01:37 26° W 20:05:52 10° SW visible
04 Sep 9.4 05:39:41 10° E 05:41:17 11° ENE 05:42:51 10° NE visible
05 Sep 9.3 20:33:34 10° WNW 20:34:40 11° WNW 20:35:45 10° W visible
06 Sep 8.6 19:57:59 10° NW 20:01:33 19° WNW 20:05:06 10° WSW visible
